轨道通信卫星FM117星 (ORBCOMM FM117)

导读

ORBCOMM FM 117是ORBCOMM公司于2015年12月22日发射的低轨通信卫星,属于ORBCOMM第二代卫星星座,核心任务是提供全球机器对机器(M2M)物联网通信服务,支持偏远地区资产跟踪、海事监控、交通运输管理等应用。卫星运行在近地轨道,依靠小型卫星组网实现广域信号覆盖,为工业、物流等领域提供低速率数据连接,是全球早期天基物联网基础设施的组成部分,助力实现全球资产的实时联网监控。

Basic Information
目录编号:
41188
目录名称:
ORBCOMM FM 117
国际标识:
2015-081K
轨道中心:
EARTH
卫星名称:
轨道通信卫星FM117星
卫星全名:
轨道通信卫星FM117星 (ORBCOMM FM117)
卫星状态:
在轨 (已飞行3870 天)
发射日期:
2015-12-22 UTC
国别 :
(ORB)
星等 :
--
Orbit Information
数据来源 国际轨道数据 AOE轨道数据
星历时间 2026-07-27T18:53:24+0800
13小时前
查看轨道信息
2026-07-22T02:00:00+0800
6天前
查看轨道信息
半长轴 7074.824km 7074.863km
偏心率 0.000224 0.0002683
轨道倾角 47.003° 47.001°
近地点辐角 23.646° 357.410°
升交点赤经 350.434° 17.406°
平近点角 336.452° 260.034°
近地点 695.102km 694.827km
远地点 698.272km 698.625km
周期 98.704分钟 98.704分钟
每日圈数 14.589127 14.589007
Detailed Information
固有亮度:
8
最大亮度:
6.7
平衡模式:
三轴稳定
覆盖范围:
全球
运营商:
轨道通信公司
运营商所在国:
美国
使用方式:
暂无
Satellite Introduction
轨道通信FM(Orbcomm FM)是一系列低地球轨道通信卫星,由美国卫星通信公司 Orbcomm运营。 截至2015年12月,已有63颗此类卫星绕地球运行。该卫星仍在工作。
2D Orbit Map
3D Orbit Map
Orbit Altitude Analysis Chart
Orbit Inclination Analysis Chart
Orbit Comprehensive Analysis Chart
View Comprehensive Chart